Dewpoint
67 68 67 67 68 67 66 66 65 66 66 65 63 64 64 65 66 67 68 69 70 70 70 70 70 70 71 72 72 72 72 72 73 73 72 72 72 72 72 72 72 72 71 72 72 72 72 71 71 71 71 71 71 71 71 72 71 70 69 69 68 67 66 64 63 65 66 66 67 68 70 71 71 70 70 71 71 71 72 71 72 72 72 72 72
67 67 67 67 67 67 66 65 65 65 66 65 64 63 64 64 65 67 67 69 70 70 70 70 70 70 70 71 71 71 72 72 72 73 73 72 72 72 72 72 72 71 71 71 71 72 71 71 70 71 70 71 72 72 71 72 72 71 70 70 69 69 67 66 65 64 66 66 67 69 69 71 70 70 70 71 71 71 71 72 73 72 73 73 73
66 67 67 67 66 66 66 65 65 64 65 65 65 64 63 64 64 64 66 67 69 69 69 69 70 70 70 70 71 71 71 71 72 73 73 72 72 72 73 72 72 72 72 71 71 71 71 71 71 71 71 70 71 71 71 71 72 71 71 70 70 70 69 68 66 65 66 67 67 68 68 69 70 71 70 71 71 70 71 72 73 74 74 74 74
66 67 67 67 66 66 66 66 65 64 64 64 64 64 64 63 65 63 64 65 67 69 69 69 69 69 69 70 71 71 71 71 72 72 72 72 72 72 72 72 72 72 72 72 72 71 71 71 71 72 71 70 71 70 71 71 71 71 70 70 70 70 70 70 69 68 67 67 68 69 69 69 71 71 71 71 71 71 71 73 72 73 74 74 74
66 67 67 67 66 66 65 65 65 64 63 63 63 64 64 64 64 64 63 63 64 67 68 68 68 68 68 68 69 70 71 71 71 72 72 72 72 72 72 72 72 72 72 72 74 72 72 71 71 71 71 71 71 71 71 70 71 70 70 70 70 71 71 71 71 70 69 69 69 68 69 69 70 71 70 70 70 70 70 71 72 73 73 74 74
66 67 67 67 67 66 66 65 65 64 64 63 63 63 63 64 64 65 64 63 63 64 66 67 68 67 67 67 68 69 70 71 71 71 72 72 73 72 72 72 72 72 72 72 72 73 72 72 72 71 71 71 71 71 71 70 70 70 70 70 70 70 70 70 70 70 70 70 69 70 68 70 69 68 69 70 71 71 70 71 70 70 70 72 72
66 67 67 67 67 67 66 66 65 65 64 64 63 63 62 62 62 63 65 65 63 63 64 65 67 67 67 67 67 68 69 70 71 71 71 72 72 72 72 72 72 72 72 72 72 72 72 72 72 72 71 71 71 71 71 71 71 71 71 70 70 69 70 70 70 70 70 70 70 70 70 69 69 69 69 70 70 70 70 70 69 68 69 70 71
67 67 67 67 68 67 67 66 66 66 65 65 64 63 62 62 62 62 64 65 65 64 64 64 65 66 66 67 68 68 68 69 70 71 71 71 72 72 72 72 72 72 72 72 72 72 73 73 73 72 72 72 71 71 71 71 71 71 71 71 70 69 69 69 69 69 69 69 69 69 68 68 69 69 70 68 68 67 68 69 70 69 68 69 70
67 67 67 67 68 68 68 67 67 67 67 66 65 64 63 62 62 62 62 62 64 65 65 65 65 65 65 66 67 68 68 68 69 70 71 71 71 71 72 72 72 72 72 72 72 72 72 73 73 73 73 75 74 74 73 73 71 70 70 70 70 70 70 69 69 68 68 68 69 69 68 69 69 69 69 68 68 68 68 68 69 69 67 68 69
68 68 67 68 68 68 69 69 68 67 67 67 66 65 64 63 62 61 61 61 61 63 64 65 65 65 65 65 65 67 68 68 68 65 67 70 71 71 71 71 72 71 71 71 71 71 71 72 72 75 76 75 73 72 71 72 74 72 71 70 70 70 70 69 69 69 69 69 69 69 68 69 69 68 67 68 68 68 68 67 67 67 66 67 67
68 68 68 68 68 69 69 69 69 68 68 67 67 66 65 64 63 62 62 61 61 61 62 62 63 64 65 64 64 65 66 67 65 63 63 65 69 70 70 71 71 71 71 71 71 71 71 71 71 73 75 77 75 71 70 69 69 70 72 74 74 71 70 69 69 69 69 69 69 68 69 69 69 68 68 69 69 70 69 66 69 66 66 66 65
69 69 69 69 69 69 69 70 70 69 69 68 68 67 66 66 65 64 62 61 62 61 61 61 61 62 63 64 64 64 65 64 62 62 62 62 65 70 70 70 70 71 71 71 71 71 71 71 71 72 72 72 73 74 73 70 68 68 68 69 70 71 72 71 70 69 69 69 69 69 69 69 69 68 68 68 69 68 68 67 67 67 66 66 65
69 69 69 70 70 70 70 70 70 70 70 69 69 68 67 67 66 65 63 63 62 62 61 61 61 61 61 62 63 64 65 62 61 61 62 62 62 66 69 69 70 70 71 71 71 71 71 71 71 71 71 75 75 73 73 73 70 67 67 68 69 69 67 66 68 71 70 69 69 69 69 69 69 69 70 69 68 68 66 66 66 66 68 67 67
70 69 70 70 70 71 71 71 71 71 71 71 70 69 69 68 67 66 65 65 64 63 62 61 61 62 62 62 62 63 64 62 60 60 60 61 62 63 68 69 69 70 70 71 71 71 71 71 70 70 71 71 72 73 73 73 72 72 71 70 70 71 70 67 67 68 69 70 70 69 70 70 70 70 71 69 68 67 66 67 65 66 67 68 68
70 71 71 70 71 71 71 71 71 71 71 71 71 71 70 69 69 68 67 66 65 64 63 62 62 63 62 62 62 62 63 61 59 58 58 59 61 63 67 69 69 69 70 70 71 71 71 71 71 70 70 71 71 72 71 72 72 72 71 71 71 70 70 70 70 70 70 70 71 71 71 71 71 71 71 69 69 68 68 68 68 68 68 67 68
69 69 70 71 71 71 71 71 71 72 72 72 71 71 71 70 70 69 69 67 67 66 65 64 64 64 63 63 63 63 63 60 58 58 57 58 60 65 67 68 69 69 69 70 70 71 71 71 71 71 71 71 72 69 71 71 71 71 70 70 70 70 70 71 66 67 70 70 71 71 71 72 69 72 71 69 68 67 69 69 69 68 68 68 68
68 69 70 70 71 71 72 72 72 72 72 72 72 72 71 71 71 70 69 69 68 67 66 65 65 65 64 64 64 63 63 61 58 57 56 57 59 65 67 68 69 69 69 69 70 70 70 71 71 71 71 71 69 65 65 72 71 70 70 70 70 70 70 70 66 63 63 63 63 64 65 65 65 63 63 65 68 69 69 68 69 68 67 66 66
69 69 69 70 71 71 72 72 72 72 72 72 72 72 72 72 71 71 70 69 68 68 67 67 66 66 65 65 64 64 63 62 57 56 56 56 60 65 67 68 68 69 69 69 70 70 71 74 74 71 70 71 66 64 64 68 70 70 70 70 69 69 69 70 69 69 62 61 62 63 63 64 64 64 64 63 62 69 70 69 69 68 69 68 67
68 69 69 70 70 71 71 72 72 72 72 72 72 72 72 72 72 71 71 70 69 69 68 67 66 66 66 65 66 65 64 62 57 56 56 56 59 65 67 67 67 68 68 69 69 70 70 73 74 72 71 69 64 63 62 66 70 70 70 69 69 69 69 69 69 69 69 68 69 69 69 68 69 68 69 67 65 69 71 71 69 69 69 68 67
68 68 69 70 70 70 71 71 71 71 71 72 72 72 72 72 72 71 71 70 70 69 68 68 67 66 67 67 66 66 65 65 64 56 55 55 56 66 67 67 67 67 68 68 69 69 70 70 70 65 64 63 62 60 60 60 68 69 69 69 69 68 69 69 69 70 70 71 71 71 71 71 71 70 68 68 68 70 70 71 70 70 69 69 67
72 70 69 69 69 70 70 70 70 70 71 71 72 72 72 72 71 71 71 70 70 69 69 68 67 67 67 67 67 67 66 66 65 57 55 54 55 59 67 67 68 68 68 68 69 69 69 70 70 66 61 60 59 59 57 57 62 69 69 69 69 68 69 68 69 74 72 72 72 72 72 71 70 68 67 67 68 69 70 70 71 70 70 69 68
72 72 70 69 69 69 69 69 70 70 70 71 71 71 72 72 71 71 71 70 70 70 69 69 68 67 67 67 67 67 67 65 66 59 55 54 54 55 65 68 68 68 68 68 69 69 69 70 70 67 61 59 58 57 56 57 57 66 69 62 62 63 67 69 69 70 72 72 72 71 71 70 70 69 68 68 69 69 70 70 70 70 70 70 70
71 72 73 71 69 70 70 69 69 69 69 70 70 70 71 71 71 71 71 70 70 69 69 69 68 67 67 67 67 67 68 68 62 65 57 54 53 53 57 64 63 69 68 68 68 69 70 70 71 67 61 58 57 56 56 56 58 62 59 59 60 62 68 69 69 70 70 71 71 71 71 70 69 69 69 69 69 69 70 70 70 70 70 70 70
70 72 73 74 73 71 70 70 69 69 69 69 70 70 71 71 71 71 71 70 70 69 69 69 68 67 67 67 67 67 68 68 64 60 62 55 54 53 54 57 61 67 69 69 69 69 70 70 69 63 59 56 55 56 57 57 62 57 57 58 60 64 67 68 69 70 70 70 70 70 70 70 70 70 69 70 70 70 70 70 70 70 70 70 70
70 71 72 72 73 73 73 72 70 69 69 69 69 70 70 71 71 71 71 70 70 69 69 69 68 68 67 67 67 67 68 68 68 64 59 58 54 53 54 55 56 58 67 69 69 70 65 62 61 60 59 57 56 56 56 56 56 57 57 58 65 66 67 68 69 70 70 70 70 70 71 71 71 71 71 70 70 70 70 71 71 71 71 70 69
69 70 71 72 72 73 72 72 72 70 69 69 68 69 69 70 70 71 71 70 70 70 69 69 68 68 67 67 67 67 68 68 68 68 64 60 57 55 55 55 56 57 61 67 65 64 62 61 59 59 59 60 64 64 65 65 58 57 58 63 65 67 68 69 69 70 70 71 71 71 71 71 71 71 70 70 70 70 70 70 70 69 67 66 65
67 67 68 69 70 71 72 72 72 71 69 68 68 69 69 70 70 70 71 70 70 70 69 69 69 68 68 67 67 67 67 68 68 68 68 66 64 62 58 58 56 57 61 64 64 66 66 65 65 63 64 64 65 65 65 66 65 63 62 64 65 66 67 68 69 70 70 71 71 71 72 72 70 69 70 69 69 68 70 69 69 68 66 65 63
64 65 66 67 69 71 72 72 72 72 70 68 68 68 69 70 70 70 70 70 70 70 69 69 69 68 68 68 68 68 67 67 68 68 68 68 66 65 63 62 62 61 62 63 65 66 68 66 66 67 67 67 67 66 67 67 68 67 66 65 66 66 68 70 71 70 71 71 72 72 70 68 69 70 69 68 68 67 68 68 67 66 65 63 62
62 64 65 67 69 71 72 72 72 71 70 69 68 68 68 69 70 70 70 71 70 70 70 69 69 69 69 68 68 68 67 67 68 63 68 63 66 66 64 63 63 63 62 60 65 66 67 68 68 69 68 68 67 68 68 67 67 67 67 67 67 67 67 68 69 70 70 71 71 71 71 70 68 67 68 67 67 66 66 66 65 64 64 62 61
61 63 65 67 68 71 71 71 72 71 70 69 68 68 67 62 66 70 70 67 64 63 62 69 70 70 69 69 69 68 68 68 62 59 58 57 57 58 59 58 57 61 60 57 62 65 66 66 67 68 68 68 69 69 69 68 68 67 67 65 67 67 68 68 69 70 70 70 71 71 71 69 68 66 67 67 66 65 64 63 63 63 62 61 61
61 63 65 66 67 70 70 70 71 71 70 69 68 68 69 69 59 59 62 65 61 58 56 58 60 63 68 69 67 62 62 60 59 56 55 55 54 55 55 54 53 54 54 60 63 64 65 66 66 67 67 68 68 69 68 68 68 67 66 66 66 67 66 67 69 69 69 70 70 70 70 69 68 66 66 67 66 65 64 62 63 63 62 61 60
61 62 64 66 68 69 70 70 71 71 70 69 69 69 69 69 70 60 55 57 58 56 55 55 55 56 58 62 67 69 61 56 57 53 54 54 53 53 53 53 52 52 51 56 64 64 65 65 66 67 68 68 68 68 69 68 66 66 66 66 66 67 66 66 66 68 69 70 70 69 70 69 69 67 66 65 64 64 63 62 62 62 62 61 60
62 63 64 66 68 69 70 71 71 71 71 70 69 70 70 69 69 70 66 54 54 55 53 52 52 53 54 54 55 59 60 58 54 52 52 53 52 51 51 51 51 50 51 60 64 65 66 66 66 67 68 68 68 68 67 66 67 67 67 66 66 67 66 66 66 68 68 69 69 69 69 68 68 66 65 64 63 64 63 62 62 62 61 60 61
64 65 66 68 69 70 70 70 70 71 72 71 71 71 71 70 70 70 69 69 67 61 56 51 50 52 52 53 54 54 54 55 53 53 51 52 51 51 51 54 49 47 55 64 64 65 66 67 66 67 67 68 67 66 66 67 67 67 67 67 67 67 66 67 66 66 66 67 68 68 67 68 67 66 65 64 64 64 63 62 62 61 61 60 60
63 65 66 67 67 68 69 69 69 69 70 71 72 71 71 71 70 70 70 69 69 69 70 68 56 50 60 56 51 50 50 51 51 51 51 51 51 48 51 61 61 59 57 61 65 66 66 66 67 67 68 67 67 67 67 68 67 67 67 67 67 67 66 66 66 66 66 67 67 67 66 66 66 65 64 63 63 63 62 62 60 60 60 59 58
62 62 63 65 65 66 67 68 68 67 67 68 69 70 72 71 71 70 69 70 69 69 69 71 68 58 52 52 54 51 50 48 49 48 49 49 47 51 64 65 66 65 63 63 64 65 66 67 67 67 67 67 67 68 67 67 67 67 68 68 67 68 67 66 66 66 66 67 67 67 64 65 65 64 63 63 63 62 62 62 60 59 60 58 56
60 61 62 63 64 64 65 67 67 67 66 65 67 68 69 70 71 72 71 71 70 70 70 65 62 63 61 61 55 50 49 49 48 48 49 47 46 59 67 67 67 67 65 65 64 65 65 66 67 67 67 67 68 68 67 67 68 68 65 68 68 68 68 68 67 66 66 66 67 66 65 65 65 63 61 61 61 62 62 61 60 59 59 58 56
59 60 60 60 61 62 63 64 67 66 66 66 67 68 68 68 70 71 71 71 70 70 70 67 65 68 68 68 63 62 55 48 49 49 46 45 50 59 65 68 68 67 67 66 66 65 65 67 68 68 68 68 68 68 67 67 68 68 68 68 68 68 65 67 65 66 66 67 67 66 65 64 64 63 60 59 58 59 59 60 60 59 58 58 56
58 58 58 58 59 61 62 63 65 66 66 66 66 66 66 67 68 69 70 71 70 70 70 68 67 68 69 66 62 61 61 63 65 66 63 60 60 62 64 66 67 67 67 67 66 65 66 67 67 68 68 68 67 67 67 67 67 67 67 67 67 68 68 68 67 66 66 66 66 65 64 64 62 62 61 60 58 58 58 59 59 59 58 56 55
58 58 58 58 59 60 61 62 64 66 66 66 66 66 66 66 67 67 68 68 69 69 69 68 67 68 67 64 64 63 66 68 67 68 66 64 62 62 63 65 66 67 67 66 65 65 64 65 66 67 68 68 67 67 67 67 67 67 67 67 67 67 67 67 67 66 65 65 64 64 64 63 61 61 60 60 59 58 58 58 58 58 57 56 56
57 57 58 58 58 59 60 62 64 65 66 66 66 66 66 66 67 67 68 68 68 68 68 67 68 66 63 61 56 58 67 68 66 65 64 64 64 63 63 65 66 66 66 64 63 61 61 60 60 60 60 61 62 64 66 67 67 66 67 65 65 65 65 65 64 64 64 63 63 63 62 61 61 60 59 58 57 57 57 57 56 56 55 55 56
56 56 56 57 57 58 59 60 60 62 66 67 66 66 66 66 67 67 67 68 67 67 67 64 61 58 54 52 51 51 61 63 62 61 60 58 57 56 55 54 54 55 54 54 55 54 53 52 52 53 53 54 55 57 59 61 63 64 63 63 62 61 61 61 61 62 62 62 62 62 61 60 59 58 58 57 57 56 56 56 55 55 55 55 54
55 56 55 56 56 56 57 57 58 60 62 65 66 67 67 66 67 67 66 66 66 65 63 60 58 58 56 51 53 53 59 59 57 55 53 52 51 51 50 50 50 50 50 50 51 50 49 48 48 48 48 49 49 51 53 55 58 59 59 59 58 58 58 58 58 59 60 60 59 58 58 57 58 58 57 56 56 56 56 56 56 56 55 55 55
54 54 54 55 55 55 56 56 56 57 58 61 65 66 66 67 66 66 66 65 64 63 61 60 58 57 57 55 54 55 54 52 51 50 49 49 48 47 47 47 47 47 47 47 48 48 48 47 46 46 46 46 46 47 48 49 52 54 55 55 54 54 55 55 56 57 58 58 57 57 56 56 57 57 57 57 57 57 56 56 56 55 55 55 55
52 52 53 52 53 53 53 54 54 55 56 57 59 61 62 65 65 65 64 63 61 60 59 59 58 57 56 54 52 51 50 49 49 48 47 46 45 45 45 45 45 45 45 45 45 45 45 46 45 44 44 44 45 45 45 46 47 48 51 52 51 51 51 52 53 55 57 57 56 56 56 56 56 56 56 56 56 55 55 55 54 55 53 54 53
51 52 52 51 51 52 52 51 53 53 53 54 53 54 57 58 59 59 59 58 58 57 56 55 54 53 52 51 50 49 48 47 46 46 45 45 44 43 43 43 43 43 44 44 44 44 44 44 44 43 43 43 42 42 42 44 45 45 46 46 46 47 48 49 52 55 56 57 57 57 57 56 56 55 55 53 52 52 52 52 52 52 52 52 52
50 51 51 51 50 50 51 50 50 51 50 51 52 52 52 53 54 54 54 54 54 53 52 52 51 50 49 49 48 48 47 46 45 44 44 42 43 43 43 43 43 43 43 43 43 43 43 43 43 43 42 42 41 41 41 41 41 43 44 45 46 47 48 50 52 54 55 55 54 53 51 50 48 47 48 47 45 45 47 47 48 49 50 51 51
49 50 50 50 49 49 49 49 49 49 49 49 49 50 51 51 51 51 51 51 51 50 50 49 49 48 48 47 47 46 46 45 44 44 43 43 43 43 43 43 43 42 42 42 43 43 43 43 42 42 43 42 42 41 40 40 41 41 42 42 43 44 44 44 43 42 41 41 41 42 42 41 41 42 42 43 43 43 44 44 46 47 47 46 45
49 49 48 49 48 48 48 49 49 47 48 48 47 47 49 48 49 49 50 50 49 49 48 48 47 47 46 45 45 45 45 45 43 43 42 42 41 41 43 42 42 41 42 42 42 43 42 43 43 43 42 42 42 41 39 40 39 40 40 40 41 41 40 41 42 43 41 43 44 43 39 40 43 41 42 42 41 41 42 43 42 43 42 43 42
48 49 49 49 48 48 48 48 47 47 47 47 46 46 46 47 46 47 47 47 47 47 47 47 46 46 45 45 45 44 44 43 42 42 42 42 42 42 42 41 41 40 40 40 40 41 41 41 41 41 42 41 40 40 39 39 39 39 38 38 39 38 38 40 41 42 42 42 43 42 41 41 40 40 40 41 41 41 41 42 43 42 42 41 42
48 48 48 48 47 48 47 46 46 46 46 46 46 46 45 45 45 45 45 45 45 45 45 44 44 44 44 44 44 43 42 42 42 42 42 41 41 41 41 40 40 40 40 40 40 39 38 39 39 39 38 39 39 39 38 39 39 39 38 37 36 36 37 39 41 37 40 43 45 45 44 44 42 41 40 39 41 42 43 42 42 41 41 41 42